Time,TemperatureF,DewpointF,PressureIn,WindDirection,WindDirectionDegrees,WindSpeedMPH,WindSpeedGustMPH,Humidity,HourlyPrecipIn,Conditions,Clouds,dailyrainin,SoftwareType,DateUTC
2013-01-12 00:00:00,49.5,49.3,29.70,North,0,0.0,1.6,99,0.00,,,0.24,fowsr,2013-01-12 05:00:00,
2013-01-12 00:05:00,49.5,49.3,29.71,SE,135,0.0,0.0,99,0.00,,,0.24,fowsr,2013-01-12 05:05:00,
2013-01-12 00:10:00,49.5,49.3,29.71,NW,315,0.0,0.0,99,0.00,,,0.24,fowsr,2013-01-12 05:10:00,
2013-01-12 00:15:00,49.5,49.3,29.71,West,270,0.0,0.7,99,0.00,,,0.24,fowsr,2013-01-12 05:15:00,
2013-01-12 00:20:00,49.5,49.3,29.72,NW,315,0.0,0.0,99,0.00,,,0.24,fowsr,2013-01-12 05:20:00,
2013-01-12 00:25:00,49.3,49.1,29.72,NW,315,0.0,0.0,99,0.00,,,0.24,fowsr,2013-01-12 05:25:00,
2013-01-12 00:30:00,49.3,49.1,29.72,NW,315,0.0,0.0,99,0.00,,,0.24,fowsr,2013-01-12 05:30:00,
2013-01-12 00:35:00,49.3,49.1,29.72,NW,315,0.0,0.0,99,0.00,,,0.24,fowsr,2013-01-12 05:35:00,
2013-01-12 00:40:00,49.3,49.1,29.72,NW,315,0.0,0.0,99,0.00,,,0.24,fowsr,2013-01-12 05:40:00,
2013-01-12 00:45:00,49.3,49.1,29.72,NW,315,0.0,0.0,99,0.00,,,0.24,fowsr,2013-01-12 05:45:00,
2013-01-12 00:50:00,49.3,49.1,29.71,NW,315,0.0,0.0,99,0.00,,,0.24,fowsr,2013-01-12 05:50:00,
2013-01-12 00:55:00,49.3,49.1,29.72,NW,315,0.0,0.0,99,0.00,,,0.24,fowsr,2013-01-12 05:55:00,
2013-01-12 01:00:00,49.3,49.1,29.72,NW,315,0.0,0.0,99,0.00,,,0.24,fowsr,2013-01-12 06:00:00,
2013-01-12 01:10:00,49.3,49.1,29.71,SE,135,0.0,0.0,99,0.00,,,0.24,fowsr,2013-01-12 06:10:00,
2013-01-12 01:15:00,49.3,49.1,29.71,SE,135,0.0,0.0,99,0.00,,,0.24,fowsr,2013-01-12 06:15:00,
2013-01-12 01:20:00,49.3,49.1,29.71,SE,135,0.0,0.7,99,0.00,,,0.24,fowsr,2013-01-12 06:20:00,
2013-01-12 01:30:00,49.3,49.1,29.70,SE,135,0.0,0.0,99,0.00,,,0.24,fowsr,2013-01-12 06:30:00,
2013-01-12 01:35:00,49.3,49.1,29.70,SE,135,0.0,0.7,99,0.00,,,0.24,fowsr,2013-01-12 06:35:00,
2013-01-12 01:40:00,49.3,49.1,29.70,SE,135,0.0,0.0,99,0.00,,,0.24,fowsr,2013-01-12 06:40:00,
2013-01-12 01:45:00,49.5,49.3,29.70,SE,135,0.0,0.0,99,0.00,,,0.24,fowsr,2013-01-12 06:45:00,
2013-01-12 01:50:00,49.5,49.3,29.71,SE,135,0.0,0.0,99,0.00,,,0.24,fowsr,2013-01-12 06:50:00,
2013-01-12 01:55:00,49.5,49.3,29.70,SE,135,0.0,0.0,99,0.00,,,0.24,fowsr,2013-01-12 06:55:00,
2013-01-12 02:00:00,49.3,49.1,29.70,SE,135,0.0,0.7,99,0.00,,,0.24,fowsr,2013-01-12 07:00:00,
2013-01-12 02:05:00,49.3,49.1,29.70,SE,135,0.0,0.0,99,0.00,,,0.24,fowsr,2013-01-12 07:05:00,
2013-01-12 02:10:00,49.3,49.1,29.70,SE,135,0.0,0.0,99,0.00,,,0.24,fowsr,2013-01-12 07:10:00,
2013-01-12 02:15:00,49.3,49.1,29.70,SE,135,0.0,0.0,99,0.00,,,0.24,fowsr,2013-01-12 07:15:00,
2013-01-12 02:20:00,49.3,49.1,29.70,SE,135,0.0,0.0,99,0.00,,,0.24,fowsr,2013-01-12 07:20:00,
2013-01-12 02:25:00,49.3,49.1,29.70,SE,135,0.0,0.0,99,0.00,,,0.24,fowsr,2013-01-12 07:25:00,
2013-01-12 02:30:00,49.3,49.1,29.70,SE,135,0.0,0.0,99,0.00,,,0.24,fowsr,2013-01-12 07:30:00,
2013-01-12 02:35:00,49.3,49.1,29.70,SE,135,0.0,0.0,99,0.00,,,0.24,fowsr,2013-01-12 07:35:00,
2013-01-12 02:40:00,49.3,49.1,29.70,SE,135,0.0,0.0,99,0.00,,,0.24,fowsr,2013-01-12 07:40:00,
2013-01-12 02:45:00,49.3,49.1,29.70,SE,135,0.0,0.0,99,0.00,,,0.24,fowsr,2013-01-12 07:45:00,
2013-01-12 02:50:00,49.5,49.3,29.71,SE,135,0.0,0.0,99,0.00,,,0.24,fowsr,2013-01-12 07:50:00,
2013-01-12 02:55:00,49.5,49.3,29.70,SE,135,0.0,0.0,99,0.00,,,0.24,fowsr,2013-01-12 07:55:00,
2013-01-12 03:00:00,49.5,49.3,29.71,SE,135,0.0,0.0,99,0.00,,,0.24,fowsr,2013-01-12 08:00:00,
2013-01-12 03:05:00,49.5,49.3,29.70,SE,135,0.0,0.0,99,0.00,,,0.24,fowsr,2013-01-12 08:05:00,
2013-01-12 03:10:00,49.5,49.3,29.70,SE,135,0.0,0.0,99,0.00,,,0.24,fowsr,2013-01-12 08:10:00,
2013-01-12 03:15:00,49.5,49.3,29.70,SE,135,0.0,0.7,99,0.00,,,0.24,fowsr,2013-01-12 08:15:00,
2013-01-12 03:20:00,49.6,49.4,29.69,East,90,0.0,0.0,99,0.00,,,0.24,fowsr,2013-01-12 08:20:00,
2013-01-12 03:25:00,49.6,49.4,29.70,East,90,0.0,0.0,99,0.00,,,0.24,fowsr,2013-01-12 08:25:00,
2013-01-12 03:30:00,49.6,49.4,29.70,East,90,0.0,0.0,99,0.00,,,0.24,fowsr,2013-01-12 08:30:00,
2013-01-12 03:40:00,49.6,49.4,29.69,East,90,0.0,0.0,99,0.00,,,0.24,fowsr,2013-01-12 08:40:00,
2013-01-12 03:45:00,49.6,49.4,29.70,East,90,0.0,0.0,99,0.00,,,0.24,fowsr,2013-01-12 08:45:00,
2013-01-12 03:50:00,49.6,49.4,29.69,East,90,0.0,0.0,99,0.00,,,0.24,fowsr,2013-01-12 08:50:00,
2013-01-12 03:55:00,49.8,49.6,29.70,East,90,0.0,0.0,99,0.00,,,0.24,fowsr,2013-01-12 08:55:00,
2013-01-12 04:05:00,49.8,49.6,29.69,East,90,0.0,0.0,99,0.00,,,0.24,fowsr,2013-01-12 09:05:00,
2013-01-12 04:10:00,49.8,49.6,29.69,East,90,0.0,0.0,99,0.00,,,0.24,fowsr,2013-01-12 09:10:00,
2013-01-12 04:15:00,49.8,49.6,29.69,East,90,0.0,0.0,99,0.00,,,0.24,fowsr,2013-01-12 09:15:00,
2013-01-12 04:20:00,49.8,49.6,29.69,East,90,0.0,0.0,99,0.00,,,0.24,fowsr,2013-01-12 09:20:00,
2013-01-12 04:25:00,49.8,49.6,29.69,East,90,0.0,0.0,99,0.00,,,0.24,fowsr,2013-01-12 09:25:00,
2013-01-12 04:30:00,49.8,49.6,29.69,East,90,0.0,0.0,99,0.00,,,0.24,fowsr,2013-01-12 09:30:00,
2013-01-12 04:35:00,49.8,49.6,29.69,SE,135,0.0,0.0,99,0.01,,,0.25,fowsr,2013-01-12 09:35:00,
2013-01-12 04:40:00,49.8,49.6,29.69,SE,135,0.0,0.7,99,0.01,,,0.25,fowsr,2013-01-12 09:40:00,
2013-01-12 04:45:00,49.8,49.6,29.69,SE,135,0.0,0.7,99,0.01,,,0.25,fowsr,2013-01-12 09:45:00,
2013-01-12 04:50:00,49.8,49.6,29.68,SE,135,0.0,0.7,99,0.01,,,0.25,fowsr,2013-01-12 09:50:00,
2013-01-12 04:55:00,49.8,49.6,29.69,SE,135,0.0,0.0,99,0.01,,,0.25,fowsr,2013-01-12 09:55:00,
2013-01-12 05:00:00,49.8,49.6,29.69,SE,135,0.0,0.0,99,0.01,,,0.25,fowsr,2013-01-12 10:00:00,
2013-01-12 05:05:00,49.8,49.6,29.68,SE,135,0.0,0.0,99,0.01,,,0.25,fowsr,2013-01-12 10:05:00,
2013-01-12 05:10:00,50.0,49.8,29.68,SE,135,0.0,0.0,99,0.01,,,0.25,fowsr,2013-01-12 10:10:00,
2013-01-12 05:15:00,50.0,49.8,29.67,SE,135,0.0,0.0,99,0.01,,,0.25,fowsr,2013-01-12 10:15:00,
2013-01-12 05:20:00,50.0,49.8,29.67,SE,135,0.0,0.0,99,0.01,,,0.25,fowsr,2013-01-12 10:20:00,
2013-01-12 05:25:00,50.0,49.8,29.67,SE,135,0.0,0.0,99,0.01,,,0.25,fowsr,2013-01-12 10:25:00,
2013-01-12 05:30:00,49.8,49.6,29.67,SE,135,0.0,0.0,99,0.01,,,0.25,fowsr,2013-01-12 10:30:00,
2013-01-12 05:35:00,49.8,49.6,29.68,SE,135,0.0,0.0,99,0.01,,,0.25,fowsr,2013-01-12 10:35:00,
2013-01-12 05:40:00,49.8,49.6,29.67,SE,135,0.0,0.0,99,0.00,,,0.25,fowsr,2013-01-12 10:40:00,
2013-01-12 05:50:00,49.8,49.6,29.68,SE,135,0.0,0.0,99,0.00,,,0.25,fowsr,2013-01-12 10:50:00,
2013-01-12 05:55:00,49.8,49.6,29.69,SE,135,0.0,0.0,99,0.00,,,0.24,fowsr,2013-01-12 10:55:00,
2013-01-12 06:00:00,49.8,49.6,29.68,SE,135,0.0,0.7,99,0.00,,,0.24,fowsr,2013-01-12 11:00:00,
2013-01-12 06:05:00,49.8,49.6,29.68,SE,135,0.0,0.0,99,0.00,,,0.24,fowsr,2013-01-12 11:05:00,
2013-01-12 06:10:00,49.8,49.6,29.69,SE,135,0.0,0.0,99,0.00,,,0.22,fowsr,2013-01-12 11:10:00,
2013-01-12 06:15:00,50.0,49.8,29.69,SE,135,0.0,0.0,99,0.00,,,0.22,fowsr,2013-01-12 11:15:00,
2013-01-12 06:20:00,50.0,49.8,29.69,SE,135,0.0,0.7,99,0.00,,,0.22,fowsr,2013-01-12 11:20:00,
2013-01-12 06:30:00,50.0,49.8,29.69,SE,135,0.0,0.0,99,0.00,,,0.21,fowsr,2013-01-12 11:30:00,
2013-01-12 06:35:00,50.0,49.8,29.70,SE,135,0.0,0.0,99,0.00,,,0.21,fowsr,2013-01-12 11:35:00,
2013-01-12 06:40:00,50.0,49.8,29.70,SE,135,0.0,0.0,99,0.00,,,0.21,fowsr,2013-01-12 11:40:00,
2013-01-12 06:45:00,50.0,49.8,29.70,SE,135,0.0,0.0,99,0.00,,,0.21,fowsr,2013-01-12 11:45:00,
2013-01-12 06:50:00,50.0,49.8,29.70,SE,135,0.0,0.0,99,0.00,,,0.20,fowsr,2013-01-12 11:50:00,
2013-01-12 06:55:00,50.0,49.8,29.70,SE,135,0.0,0.7,99,0.00,,,0.19,fowsr,2013-01-12 11:55:00,
2013-01-12 07:00:00,50.2,50.0,29.70,SE,135,0.0,0.0,99,0.00,,,0.17,fowsr,2013-01-12 12:00:00,
2013-01-12 07:05:00,50.2,50.0,29.70,SE,135,0.0,0.0,99,0.00,,,0.15,fowsr,2013-01-12 12:05:00,
2013-01-12 07:10:00,50.2,50.0,29.70,SE,135,0.0,0.0,99,0.00,,,0.15,fowsr,2013-01-12 12:10:00,
2013-01-12 07:15:00,50.2,50.0,29.70,SE,135,0.0,0.0,99,0.00,,,0.12,fowsr,2013-01-12 12:15:00,
2013-01-12 07:25:00,50.2,50.0,29.70,SE,135,0.0,0.0,99,0.00,,,0.11,fowsr,2013-01-12 12:25:00,
2013-01-12 07:30:00,50.2,50.0,29.70,SE,135,0.0,0.7,99,0.00,,,0.09,fowsr,2013-01-12 12:30:00,
2013-01-12 07:35:00,50.2,50.0,29.71,SE,135,0.0,0.0,99,0.00,,,0.09,fowsr,2013-01-12 12:35:00,
2013-01-12 07:40:00,50.2,50.0,29.70,SE,135,0.0,0.0,99,0.00,,,0.08,fowsr,2013-01-12 12:40:00,
2013-01-12 07:45:00,50.2,50.0,29.70,SE,135,0.0,0.0,99,0.00,,,0.08,fowsr,2013-01-12 12:45:00,
2013-01-12 07:50:00,50.4,50.2,29.71,SE,135,0.0,0.0,99,0.00,,,0.07,fowsr,2013-01-12 12:50:00,
2013-01-12 07:55:00,50.4,50.2,29.71,SE,135,0.0,0.0,99,0.00,,,0.07,fowsr,2013-01-12 12:55:00,
2013-01-12 08:00:00,50.5,50.3,29.71,SE,135,0.0,0.0,99,0.00,,,0.07,fowsr,2013-01-12 13:00:00,
2013-01-12 08:10:00,50.7,50.5,29.71,SE,135,0.0,0.0,99,0.00,,,0.06,fowsr,2013-01-12 13:10:00,
2013-01-12 08:15:00,50.7,50.5,29.71,SE,135,0.0,0.0,99,0.00,,,0.06,fowsr,2013-01-12 13:15:00,
2013-01-12 08:20:00,50.9,50.7,29.71,SE,135,0.0,0.0,99,0.00,,,0.06,fowsr,2013-01-12 13:20:00,
2013-01-12 08:25:00,51.1,50.9,29.71,SE,135,0.0,0.7,99,0.00,,,0.05,fowsr,2013-01-12 13:25:00,
2013-01-12 08:30:00,51.1,50.9,29.72,SE,135,0.0,0.0,99,0.00,,,0.05,fowsr,2013-01-12 13:30:00,
2013-01-12 08:35:00,51.1,50.9,29.72,SE,135,0.0,0.0,99,0.00,,,0.05,fowsr,2013-01-12 13:35:00,
2013-01-12 08:40:00,51.1,50.9,29.71,East,90,0.0,0.7,99,0.00,,,0.05,fowsr,2013-01-12 13:40:00,
2013-01-12 08:45:00,51.3,51.1,29.72,West,270,0.0,0.0,99,0.00,,,0.05,fowsr,2013-01-12 13:45:00,
2013-01-12 08:50:00,51.3,51.1,29.72,SE,135,0.0,0.7,99,0.00,,,0.05,fowsr,2013-01-12 13:50:00,
2013-01-12 08:55:00,51.4,51.2,29.72,SE,135,0.0,0.7,99,0.00,,,0.05,fowsr,2013-01-12 13:55:00,
2013-01-12 09:00:00,51.6,51.4,29.72,SE,135,0.0,0.0,99,0.00,,,0.05,fowsr,2013-01-12 14:00:00,
2013-01-12 09:05:00,51.8,51.4,29.72,SE,135,0.0,0.7,98,0.00,,,0.05,fowsr,2013-01-12 14:05:00,
2013-01-12 09:10:00,52.0,51.6,29.72,SE,135,0.0,0.0,98,0.00,,,0.05,fowsr,2013-01-12 14:10:00,
2013-01-12 09:15:00,52.2,51.7,29.72,NE,45,0.0,0.7,98,0.00,,,0.05,fowsr,2013-01-12 14:15:00,
2013-01-12 09:20:00,52.3,51.9,29.72,East,90,0.0,0.0,98,0.00,,,0.05,fowsr,2013-01-12 14:20:00,
2013-01-12 09:25:00,52.5,52.1,29.72,NE,45,0.0,0.0,98,0.00,,,0.05,fowsr,2013-01-12 14:25:00,
2013-01-12 09:30:00,52.7,52.3,29.72,SE,135,0.0,0.7,98,0.00,,,0.05,fowsr,2013-01-12 14:30:00,
2013-01-12 09:35:00,52.9,52.5,29.72,SE,135,0.0,0.7,98,0.00,,,0.05,fowsr,2013-01-12 14:35:00,
2013-01-12 09:40:00,53.1,52.6,29.72,SE,135,0.7,1.6,98,0.00,,,0.04,fowsr,2013-01-12 14:40:00,
2013-01-12 09:45:00,53.2,52.8,29.72,SE,135,0.0,0.0,98,0.00,,,0.04,fowsr,2013-01-12 14:45:00,
2013-01-12 09:50:00,53.6,53.0,29.72,SE,135,0.0,0.7,97,0.00,,,0.04,fowsr,2013-01-12 14:50:00,
2013-01-12 09:55:00,53.8,53.2,29.72,SE,135,0.0,0.0,97,0.00,,,0.02,fowsr,2013-01-12 14:55:00,
2013-01-12 10:00:00,54.0,53.3,29.73,North,0,0.0,0.0,97,0.00,,,0.01,fowsr,2013-01-12 15:00:00,
2013-01-12 10:05:00,54.1,53.5,29.73,NW,315,0.0,0.0,97,0.00,,,0.01,fowsr,2013-01-12 15:05:00,
2013-01-12 10:10:00,54.1,53.5,29.73,NW,315,0.0,0.7,97,0.00,,,0.01,fowsr,2013-01-12 15:10:00,
2013-01-12 10:15:00,54.3,53.7,29.73,South,180,0.0,0.7,97,0.00,,,0.01,fowsr,2013-01-12 15:15:00,
2013-01-12 10:20:00,54.5,53.9,29.73,SE,135,0.7,2.2,97,0.00,,,0.01,fowsr,2013-01-12 15:20:00,
2013-01-12 10:25:00,54.7,54.0,29.73,SE,135,0.0,0.0,97,0.00,,,0.01,fowsr,2013-01-12 15:25:00,
2013-01-12 10:30:00,55.0,54.4,29.73,SE,135,0.0,0.0,97,0.00,,,0.01,fowsr,2013-01-12 15:30:00,
2013-01-12 10:35:00,55.2,54.6,29.73,West,270,0.0,0.7,97,0.00,,,0.01,fowsr,2013-01-12 15:35:00,
2013-01-12 10:40:00,55.4,55.0,29.73,SW,225,0.0,0.0,98,0.00,,,0.01,fowsr,2013-01-12 15:40:00,
2013-01-12 10:45:00,55.6,55.4,29.72,SE,135,0.0,0.0,99,0.00,,,0.01,fowsr,2013-01-12 15:45:00,
2013-01-12 10:50:00,55.9,55.7,29.73,East,90,0.0,0.7,99,0.00,,,0.01,fowsr,2013-01-12 15:50:00,
2013-01-12 10:55:00,55.9,55.7,29.72,SE,135,0.0,0.7,99,0.00,,,0.01,fowsr,2013-01-12 15:55:00,
2013-01-12 11:00:00,56.1,55.9,29.72,SE,135,0.0,0.0,99,0.00,,,0.01,fowsr,2013-01-12 16:00:00,
2013-01-12 11:05:00,56.5,56.3,29.72,SE,135,0.0,0.0,99,0.00,,,0.01,fowsr,2013-01-12 16:05:00,
2013-01-12 11:10:00,56.7,56.4,29.72,SW,225,0.0,1.6,99,0.00,,,0.01,fowsr,2013-01-12 16:10:00,
2013-01-12 11:15:00,56.8,56.6,29.71,East,90,0.7,2.2,99,0.00,,,0.01,fowsr,2013-01-12 16:15:00,
2013-01-12 11:20:00,57.0,56.8,29.71,SW,225,0.7,2.2,99,0.00,,,0.01,fowsr,2013-01-12 16:20:00,
2013-01-12 11:25:00,57.2,56.8,29.71,SE,135,0.0,1.6,98,0.00,,,0.01,fowsr,2013-01-12 16:25:00,
2013-01-12 11:30:00,57.4,57.0,29.70,West,270,0.0,0.0,98,0.00,,,0.01,fowsr,2013-01-12 16:30:00,
2013-01-12 11:35:00,57.6,57.3,29.69,NW,315,0.7,1.6,99,0.00,,,0.01,fowsr,2013-01-12 16:35:00,
2013-01-12 11:40:00,57.7,57.5,29.70,West,270,0.0,0.7,99,0.00,,,0.01,fowsr,2013-01-12 16:40:00,
2013-01-12 11:45:00,57.9,57.7,29.69,West,270,0.0,1.6,99,0.00,,,0.01,fowsr,2013-01-12 16:45:00,
2013-01-12 11:50:00,57.9,57.7,29.69,South,180,0.0,0.7,99,0.00,,,0.01,fowsr,2013-01-12 16:50:00,
2013-01-12 11:55:00,58.6,58.4,29.69,NW,315,0.0,0.0,99,0.00,,,0.01,fowsr,2013-01-12 16:55:00,
2013-01-12 12:00:00,59.2,58.7,29.69,NW,315,0.0,1.6,98,0.00,,,0.01,fowsr,2013-01-12 17:00:00,
2013-01-12 12:05:00,59.9,59.7,29.69,South,180,0.7,2.2,99,0.00,,,0.01,fowsr,2013-01-12 17:05:00,
2013-01-12 12:10:00,60.8,60.4,29.69,South,180,0.7,2.2,98,0.00,,,0.01,fowsr,2013-01-12 17:10:00,
2013-01-12 12:15:00,61.5,61.1,29.69,SW,225,0.0,0.7,98,0.00,,,0.01,fowsr,2013-01-12 17:15:00,
2013-01-12 12:20:00,62.6,61.9,29.69,South,180,0.0,1.6,97,0.00,,,0.01,fowsr,2013-01-12 17:20:00,
2013-01-12 12:25:00,63.7,63.0,29.68,West,270,0.0,0.7,97,0.00,,,0.01,fowsr,2013-01-12 17:25:00,
2013-01-12 12:30:00,64.8,64.3,29.68,South,180,0.0,0.7,98,0.00,,,0.01,fowsr,2013-01-12 17:30:00,
2013-01-12 12:35:00,66.2,65.3,29.68,SW,225,0.7,1.6,96,0.00,,,0.01,fowsr,2013-01-12 17:35:00,
2013-01-12 12:40:00,67.1,65.9,29.67,NW,315,0.0,0.7,95,0.00,,,0.01,fowsr,2013-01-12 17:40:00,
2013-01-12 12:45:00,67.5,65.8,29.67,South,180,0.0,1.6,93,0.00,,,0.01,fowsr,2013-01-12 17:45:00,
2013-01-12 12:50:00,67.6,65.3,29.67,NE,45,0.0,0.7,90,0.00,,,0.01,fowsr,2013-01-12 17:50:00,
2013-01-12 12:55:00,68.0,64.6,29.67,North,0,0.0,0.0,86,0.00,,,0.01,fowsr,2013-01-12 17:55:00,
2013-01-12 13:00:00,68.7,65.0,29.67,SW,225,0.0,0.7,85,0.00,,,0.01,fowsr,2013-01-12 18:00:00,
2013-01-12 13:05:00,69.3,64.8,29.67,SW,225,0.7,1.6,82,0.00,,,0.01,fowsr,2013-01-12 18:05:00,
2013-01-12 13:10:00,69.8,64.7,29.67,West,270,0.7,1.6,80,0.00,,,0.01,fowsr,2013-01-12 18:10:00,
2013-01-12 13:15:00,70.0,64.1,29.67,SE,135,0.7,2.2,77,0.00,,,0.01,fowsr,2013-01-12 18:15:00,
2013-01-12 13:20:00,69.8,64.2,29.67,East,90,1.6,3.1,78,0.00,,,0.01,fowsr,2013-01-12 18:20:00,
2013-01-12 13:25:00,70.2,64.5,29.67,NW,315,0.0,0.7,78,0.00,,,0.01,fowsr,2013-01-12 18:25:00,
2013-01-12 13:30:00,70.7,65.0,29.67,SE,135,0.0,0.0,78,0.00,,,0.01,fowsr,2013-01-12 18:30:00,
2013-01-12 13:35:00,70.7,64.8,29.67,SE,135,1.6,2.2,77,0.00,,,0.01,fowsr,2013-01-12 18:35:00,
2013-01-12 13:40:00,70.5,64.3,29.67,South,180,0.0,1.6,76,0.00,,,0.01,fowsr,2013-01-12 18:40:00,
2013-01-12 13:45:00,70.3,64.1,29.67,South,180,0.0,0.7,76,0.00,,,0.01,fowsr,2013-01-12 18:45:00,
2013-01-12 13:50:00,71.1,65.4,29.67,West,270,0.0,1.6,78,0.00,,,0.01,fowsr,2013-01-12 18:50:00,
2013-01-12 13:55:00,72.3,65.4,29.67,SW,225,0.7,1.6,74,0.00,,,0.01,fowsr,2013-01-12 18:55:00,
2013-01-12 14:00:00,73.0,65.5,29.67,West,270,0.0,1.6,72,0.00,,,0.01,fowsr,2013-01-12 19:00:00,
2013-01-12 14:05:00,73.2,65.4,29.66,SW,225,0.0,1.6,71,0.00,,,0.01,fowsr,2013-01-12 19:05:00,
2013-01-12 14:10:00,73.6,66.0,29.67,SE,135,0.0,0.0,72,0.00,,,0.01,fowsr,2013-01-12 19:10:00,
2013-01-12 14:15:00,74.3,66.7,29.67,South,180,0.0,0.7,72,0.00,,,0.01,fowsr,2013-01-12 19:15:00,
2013-01-12 14:20:00,74.8,66.6,29.67,West,270,0.0,1.6,70,0.00,,,0.01,fowsr,2013-01-12 19:20:00,
2013-01-12 14:25:00,74.8,65.9,29.67,West,270,0.0,1.6,68,0.00,,,0.01,fowsr,2013-01-12 19:25:00,
2013-01-12 14:30:00,74.7,65.8,29.67,SE,135,0.0,0.7,68,0.00,,,0.01,fowsr,2013-01-12 19:30:00,
2013-01-12 14:35:00,74.8,66.3,29.67,SE,135,0.7,1.6,69,0.00,,,0.01,fowsr,2013-01-12 19:35:00,
2013-01-12 14:40:00,75.4,66.4,29.67,SE,135,0.0,1.6,68,0.00,,,0.01,fowsr,2013-01-12 19:40:00,
2013-01-12 14:45:00,75.2,65.9,29.67,SSE,157,0.0,0.7,67,0.00,,,0.01,fowsr,2013-01-12 19:45:00,
2013-01-12 14:50:00,74.8,65.9,29.67,SE,135,0.0,0.0,68,0.00,,,0.01,fowsr,2013-01-12 19:50:00,
2013-01-12 14:55:00,74.7,66.7,29.67,SE,135,0.0,0.0,71,0.00,,,0.01,fowsr,2013-01-12 19:55:00,
2013-01-12 15:00:00,74.3,66.1,29.67,NW,315,0.0,0.7,70,0.00,,,0.01,fowsr,2013-01-12 20:00:00,
2013-01-12 15:05:00,73.6,65.1,29.67,NW,315,0.0,0.7,69,0.00,,,0.01,fowsr,2013-01-12 20:05:00,
2013-01-12 15:10:00,73.0,64.9,29.67,SE,135,0.0,1.6,70,0.00,,,0.01,fowsr,2013-01-12 20:10:00,
2013-01-12 15:15:00,73.0,65.2,29.67,SE,135,0.0,0.7,71,0.00,,,0.01,fowsr,2013-01-12 20:15:00,
2013-01-12 15:20:00,73.0,64.9,29.67,SE,135,0.0,0.0,70,0.00,,,0.01,fowsr,2013-01-12 20:20:00,
2013-01-12 15:25:00,73.0,65.2,29.67,NW,315,0.0,0.0,71,0.00,,,0.01,fowsr,2013-01-12 20:25:00,
2013-01-12 15:30:00,73.6,66.0,29.67,East,90,0.0,0.7,72,0.00,,,0.01,fowsr,2013-01-12 20:30:00,
2013-01-12 15:35:00,73.6,66.0,29.67,NW,315,0.0,0.7,72,0.00,,,0.01,fowsr,2013-01-12 20:35:00,
2013-01-12 15:40:00,73.4,65.8,29.67,SE,135,0.0,0.0,72,0.00,,,0.01,fowsr,2013-01-12 20:40:00,
2013-01-12 15:45:00,73.2,65.7,29.67,SE,135,0.0,0.0,72,0.00,,,0.01,fowsr,2013-01-12 20:45:00,
2013-01-12 15:50:00,73.0,65.8,29.67,SE,135,0.0,0.0,73,0.00,,,0.01,fowsr,2013-01-12 20:50:00,
2013-01-12 15:55:00,73.0,65.5,29.67,East,90,0.0,0.0,72,0.00,,,0.01,fowsr,2013-01-12 20:55:00,
2013-01-12 16:00:00,73.0,65.5,29.67,East,90,0.0,0.0,72,0.00,,,0.01,fowsr,2013-01-12 21:00:00,
2013-01-12 16:05:00,72.9,65.3,29.67,East,90,0.0,0.0,72,0.00,,,0.01,fowsr,2013-01-12 21:05:00,
2013-01-12 16:10:00,72.7,65.5,29.67,East,90,0.0,0.0,73,0.00,,,0.01,fowsr,2013-01-12 21:10:00,
2013-01-12 16:15:00,72.3,65.4,29.67,East,90,0.0,0.7,74,0.00,,,0.01,fowsr,2013-01-12 21:15:00,
2013-01-12 16:20:00,72.0,65.1,29.67,East,90,0.0,0.0,74,0.00,,,0.01,fowsr,2013-01-12 21:20:00,
2013-01-12 16:30:00,71.2,65.3,29.67,East,90,0.0,0.0,77,0.00,,,0.01,fowsr,2013-01-12 21:30:00,
2013-01-12 16:35:00,70.9,65.5,29.67,East,90,0.0,0.0,79,0.00,,,0.01,fowsr,2013-01-12 21:35:00,
2013-01-12 16:40:00,70.3,65.0,29.67,East,90,0.0,0.0,79,0.00,,,0.01,fowsr,2013-01-12 21:40:00,
2013-01-12 16:45:00,70.2,64.8,29.67,East,90,0.0,0.0,79,0.00,,,0.01,fowsr,2013-01-12 21:45:00,
2013-01-12 16:50:00,69.8,64.7,29.67,East,90,0.0,0.0,80,0.00,,,0.01,fowsr,2013-01-12 21:50:00,
2013-01-12 16:55:00,69.4,64.7,29.67,East,90,0.0,0.0,81,0.00,,,0.01,fowsr,2013-01-12 21:55:00,
2013-01-12 17:00:00,69.1,64.3,29.67,East,90,0.0,0.0,81,0.00,,,0.01,fowsr,2013-01-12 22:00:00,
2013-01-12 17:05:00,68.7,64.2,29.67,East,90,0.0,0.0,82,0.00,,,0.01,fowsr,2013-01-12 22:05:00,
2013-01-12 17:10:00,68.4,63.9,29.66,East,90,0.0,0.0,82,0.00,,,0.01,fowsr,2013-01-12 22:10:00,
2013-01-12 17:15:00,68.0,63.8,29.66,East,90,0.0,0.0,83,0.00,,,0.01,fowsr,2013-01-12 22:15:00,
2013-01-12 17:20:00,67.6,63.7,29.66,East,90,0.0,0.0,84,0.00,,,0.01,fowsr,2013-01-12 22:20:00,
2013-01-12 17:25:00,67.5,63.6,29.66,East,90,0.0,0.0,84,0.00,,,0.01,fowsr,2013-01-12 22:25:00,
2013-01-12 17:35:00,66.7,63.1,29.66,East,90,0.0,0.0,85,0.00,,,0.01,fowsr,2013-01-12 22:35:00,
2013-01-12 17:40:00,66.4,62.8,29.66,East,90,0.0,0.0,85,0.00,,,0.01,fowsr,2013-01-12 22:40:00,
2013-01-12 17:50:00,65.8,62.7,29.67,East,90,0.0,0.0,87,0.00,,,0.01,fowsr,2013-01-12 22:50:00,
2013-01-12 18:00:00,65.3,62.2,29.66,East,90,0.0,0.0,87,0.00,,,0.01,fowsr,2013-01-12 23:00:00,
2013-01-12 18:05:00,65.1,62.0,29.66,East,90,0.0,0.0,87,0.00,,,0.01,fowsr,2013-01-12 23:05:00,
2013-01-12 18:10:00,64.8,61.7,29.66,East,90,0.0,0.0,87,0.00,,,0.01,fowsr,2013-01-12 23:10:00,
2013-01-12 18:20:00,64.2,61.4,29.66,East,90,0.0,0.0,88,0.00,,,0.01,fowsr,2013-01-12 23:20:00,
2013-01-12 18:25:00,63.9,61.1,29.66,East,90,0.0,0.0,88,0.00,,,0.01,fowsr,2013-01-12 23:25:00,
2013-01-12 18:30:00,63.7,60.9,29.66,East,90,0.0,0.0,88,0.00,,,0.01,fowsr,2013-01-12 23:30:00,
2013-01-12 18:35:00,63.3,60.5,29.66,East,90,0.0,0.0,88,0.00,,,0.01,fowsr,2013-01-12 23:35:00,
2013-01-12 18:45:00,63.0,60.2,29.66,East,90,0.0,0.0,88,0.00,,,0.01,fowsr,2013-01-12 23:45:00,
2013-01-12 18:50:00,62.6,59.8,29.66,East,90,0.0,0.0,88,0.00,,,0.01,fowsr,2013-01-12 23:50:00,
2013-01-12 18:55:00,62.4,59.9,29.66,East,90,0.0,0.0,89,0.00,,,0.01,fowsr,2013-01-12 23:55:00,
2013-01-12 19:00:00,62.2,59.9,29.66,East,90,0.0,0.0,90,0.00,,,0.01,fowsr,2013-01-13 00:00:00,
2013-01-12 19:05:00,62.1,59.8,29.66,East,90,0.0,0.0,90,0.00,,,0.01,fowsr,2013-01-13 00:05:00,
2013-01-12 19:10:00,62.1,59.8,29.66,East,90,0.0,0.0,90,0.00,,,0.01,fowsr,2013-01-13 00:10:00,
2013-01-12 19:15:00,61.9,59.8,29.66,East,90,0.0,0.0,91,0.00,,,0.01,fowsr,2013-01-13 00:15:00,
2013-01-12 19:20:00,61.7,59.7,29.66,East,90,0.0,0.0,91,0.00,,,0.01,fowsr,2013-01-13 00:20:00,
2013-01-12 19:25:00,61.5,59.5,29.66,East,90,0.0,0.0,91,0.00,,,0.01,fowsr,2013-01-13 00:25:00,
2013-01-12 19:35:00,61.2,59.1,29.66,East,90,0.0,0.0,91,0.00,,,0.01,fowsr,2013-01-13 00:35:00,
2013-01-12 19:40:00,61.2,59.1,29.66,East,90,0.0,0.0,91,0.00,,,0.01,fowsr,2013-01-13 00:40:00,
2013-01-12 19:45:00,61.0,58.9,29.66,East,90,0.0,0.0,91,0.00,,,0.01,fowsr,2013-01-13 00:45:00,
2013-01-12 19:50:00,61.0,58.9,29.66,East,90,0.0,0.0,91,0.00,,,0.01,fowsr,2013-01-13 00:50:00,
2013-01-12 20:00:00,60.6,59.1,29.65,East,90,0.0,0.0,93,0.00,,,0.01,fowsr,2013-01-13 01:00:00,
2013-01-12 20:05:00,60.4,58.9,29.66,East,90,0.0,0.0,93,0.00,,,0.01,fowsr,2013-01-13 01:05:00,
2013-01-12 20:15:00,60.3,58.7,29.66,East,90,0.0,0.0,93,0.00,,,0.01,fowsr,2013-01-13 01:15:00,
2013-01-12 20:20:00,60.1,58.5,29.66,East,90,0.0,0.0,93,0.00,,,0.01,fowsr,2013-01-13 01:20:00,
2013-01-12 20:25:00,59.9,58.3,29.65,East,90,0.0,0.0,93,0.00,,,0.01,fowsr,2013-01-13 01:25:00,
2013-01-12 20:35:00,59.7,58.2,29.65,East,90,0.0,0.0,93,0.00,,,0.01,fowsr,2013-01-13 01:35:00,
2013-01-12 20:40:00,59.7,58.2,29.66,East,90,0.0,0.0,93,0.00,,,0.01,fowsr,2013-01-13 01:40:00,
2013-01-12 20:50:00,59.5,58.0,29.66,East,90,0.0,0.0,93,0.00,,,0.01,fowsr,2013-01-13 01:50:00,
2013-01-12 20:55:00,59.4,57.8,29.67,East,90,0.0,0.0,93,0.00,,,0.01,fowsr,2013-01-13 01:55:00,
2013-01-12 21:00:00,59.2,57.6,29.66,East,90,0.0,0.0,93,0.00,,,0.01,fowsr,2013-01-13 02:00:00,
2013-01-12 21:05:00,59.2,57.6,29.66,East,90,0.0,0.0,93,0.00,,,0.01,fowsr,2013-01-13 02:05:00,
2013-01-12 21:10:00,59.0,57.5,29.66,East,90,0.0,0.0,93,0.00,,,0.01,fowsr,2013-01-13 02:10:00,
2013-01-12 21:15:00,59.0,57.5,29.66,East,90,0.0,0.0,93,0.00,,,0.01,fowsr,2013-01-13 02:15:00,
2013-01-12 21:20:00,59.0,57.7,29.67,East,90,0.0,0.0,94,0.00,,,0.01,fowsr,2013-01-13 02:20:00,
2013-01-12 21:25:00,59.0,57.7,29.66,East,90,0.0,0.0,94,0.00,,,0.01,fowsr,2013-01-13 02:25:00,
2013-01-12 21:35:00,58.8,57.7,29.66,East,90,0.0,0.0,95,0.00,,,0.01,fowsr,2013-01-13 02:35:00,
2013-01-12 21:40:00,58.8,57.7,29.66,East,90,0.0,0.0,95,0.00,,,0.01,fowsr,2013-01-13 02:40:00,
2013-01-12 21:50:00,58.6,57.5,29.66,East,90,0.0,0.0,95,0.00,,,0.01,fowsr,2013-01-13 02:50:00,
2013-01-12 21:55:00,58.6,57.5,29.66,East,90,0.0,0.0,95,0.00,,,0.01,fowsr,2013-01-13 02:55:00,
2013-01-12 22:00:00,58.5,57.4,29.66,East,90,0.0,0.0,95,0.00,,,0.01,fowsr,2013-01-13 03:00:00,
2013-01-12 22:05:00,58.3,57.2,29.66,East,90,0.0,0.0,95,0.00,,,0.01,fowsr,2013-01-13 03:05:00,
2013-01-12 22:10:00,58.3,57.2,29.66,East,90,0.0,0.0,95,0.00,,,0.01,fowsr,2013-01-13 03:10:00,
2013-01-12 22:15:00,58.1,57.0,29.66,East,90,0.0,0.0,95,0.00,,,0.01,fowsr,2013-01-13 03:15:00,
2013-01-12 22:20:00,58.1,57.0,29.66,East,90,0.0,0.0,95,0.00,,,0.01,fowsr,2013-01-13 03:20:00,
2013-01-12 22:25:00,57.9,56.8,29.66,East,90,0.0,0.0,95,0.00,,,0.01,fowsr,2013-01-13 03:25:00,
2013-01-12 22:30:00,57.7,56.7,29.66,East,90,0.0,0.0,95,0.00,,,0.01,fowsr,2013-01-13 03:30:00,
2013-01-12 22:40:00,57.6,56.5,29.66,East,90,0.0,0.0,95,0.00,,,0.01,fowsr,2013-01-13 03:40:00,
2013-01-12 22:45:00,57.4,56.3,29.66,East,90,0.0,0.0,95,0.00,,,0.01,fowsr,2013-01-13 03:45:00,
2013-01-12 22:50:00,57.4,56.3,29.66,East,90,0.0,0.0,95,0.00,,,0.01,fowsr,2013-01-13 03:50:00,
2013-01-12 22:55:00,57.2,56.1,29.67,East,90,0.0,0.0,95,0.00,,,0.01,fowsr,2013-01-13 03:55:00,
2013-01-12 23:00:00,57.2,56.1,29.67,North,0,0.0,0.0,95,0.00,,,0.01,fowsr,2013-01-13 04:00:00,
2013-01-12 23:05:00,57.2,56.1,29.66,North,0,0.0,0.0,95,0.00,,,0.01,fowsr,2013-01-13 04:05:00,
2013-01-12 23:10:00,57.0,56.2,29.67,North,0,0.0,0.0,96,0.00,,,0.01,fowsr,2013-01-13 04:10:00,
2013-01-12 23:15:00,57.0,56.2,29.67,North,0,0.0,0.0,96,0.00,,,0.01,fowsr,2013-01-13 04:15:00,
2013-01-12 23:20:00,57.0,56.2,29.67,North,0,0.0,0.0,96,0.00,,,0.01,fowsr,2013-01-13 04:20:00,
2013-01-12 23:25:00,56.8,56.0,29.67,North,0,0.0,0.0,96,0.00,,,0.01,fowsr,2013-01-13 04:25:00,
2013-01-12 23:30:00,56.8,56.0,29.66,North,0,0.0,0.0,96,0.00,,,0.01,fowsr,2013-01-13 04:30:00,
2013-01-12 23:35:00,56.7,55.8,29.66,North,0,0.0,0.0,96,0.00,,,0.01,fowsr,2013-01-13 04:35:00,
2013-01-12 23:40:00,56.7,55.8,29.66,North,0,0.0,0.0,96,0.00,,,0.01,fowsr,2013-01-13 04:40:00,
2013-01-12 23:45:00,56.7,55.8,29.66,North,0,0.0,0.0,96,0.00,,,0.01,fowsr,2013-01-13 04:45:00,
2013-01-12 23:50:00,56.7,55.8,29.66,North,0,0.0,0.0,96,0.00,,,0.01,fowsr,2013-01-13 04:50:00,
2013-01-12 23:55:00,56.8,56.0,29.66,North,0,0.0,0.0,96,0.00,,,0.01,fowsr,2013-01-13 04:55:00,